RYR9MJ LEMH-EGCC

Flight info

Callsign RYR9MJ
Flight time N/A
Altitude 38000
Route MEROS N853 LUMAS DCT SOFFY DCT MRM DCT MTL DCT ETREK DCT MADOT DCT MOPEM DCT CACHI DCT AVLON DCT OKRIX DCT BRY DCT CLM DCT KOPOR DCT VESAN DCT RATUK DCT SOVAT L613 SANDY UN57 WELIN T420 ELVOS
Aircraft B38M/M-SADE3FGILRWY/SB1

Departure

Time N/A
Airport Menorca Airport (LEMH)

Arrival

Time 2026-04-30 18:02
Airport Manchester Airport (EGCC)
Time Latitude Longitude Altitude Speed Heading
2026-04-30 17:39 51.90292 -0.27249 38205 ft 471 kts 313°
2026-04-30 17:41 52.08608 -0.57917 35967 ft 475 kts 312°
2026-04-30 17:42 52.13231 -0.65721 34187 ft 485 kts 312°
2026-04-30 17:42 52.20260 -0.77627 31682 ft 488 kts 312°
2026-04-30 17:43 52.25100 -0.85377 30218 ft 489 kts 324°
2026-04-30 17:44 52.33656 -0.94093 28297 ft 477 kts 328°
2026-04-30 17:44 52.42038 -1.02477 26421 ft 470 kts 328°
2026-04-30 17:46 52.55971 -1.16474 22970 ft 464 kts 328°
2026-04-30 17:47 52.66750 -1.27369 20645 ft 448 kts 328°
2026-04-30 17:48 52.77175 -1.37976 18685 ft 433 kts 327°
2026-04-30 17:48 52.84725 -1.45694 17106 ft 422 kts 327°
2026-04-30 17:49 52.94178 -1.56503 15123 ft 403 kts 302°
2026-04-30 17:50 52.99068 -1.73089 10592 ft 407 kts 292°
2026-04-30 17:51 53.02362 -1.84644 10215 ft 330 kts 291°
2026-04-30 17:52 53.05151 -1.94453 8993 ft 304 kts 291°
2026-04-30 17:53 53.09556 -2.09937 6506 ft 289 kts 292°
2026-04-30 17:54 53.12966 -2.21995 5117 ft 286 kts 291°
2026-04-30 17:55 53.16204 -2.33495 4423 ft 260 kts 291°
2026-04-30 17:56 53.19188 -2.44143 3367 ft 254 kts 291°
2026-04-30 17:57 53.22284 -2.50254 3034 ft 215 kts 339°
2026-04-30 17:58 53.25209 -2.47628 2724 ft 167 kts 62°
2026-04-30 17:59 53.28081 -2.41618 1816 ft 161 kts 59°
2026-04-30 18:00 53.30810 -2.36002 1005 ft 144 kts 58°
2026-04-30 18:00 53.32720 -2.32056 411 ft 147 kts 54°
2026-04-30 18:01 53.33909 -2.29584 243 ft 100 kts 50°
2026-04-30 18:02 53.34626 -2.28223 263 ft 23 kts 30°
2026-04-30 18:02 53.35034 -2.27731 262 ft 28 kts 51°
2026-04-30 18:03 53.35415 -2.26946 247 ft 24 kts 50°
2026-04-30 18:04 53.35842 -2.26687 237 ft 19 kts 350°
2026-04-30 18:05 53.35977 -2.26981 239 ft 0 kts 291°